Check out our new BloomSky Weather System.

Active alerts

Galveston, TX
  Details for Galveston, TX Coastal Flood Advisory  +2 additional alerts
Houston, TX
  Details for Houston, TX Flash Flood Watch
Fort Bend, TX
  Details for Fort Bend, TX Flash Flood Watch


Thunder radar  blitzortung!


Rain radar more information rain snow radar


Visit our other weather sites:

Template documentation
and downloads

And another site



Weather Underground History page Text

Daily Summary for February 2, 2018 Units:  English    Metric   Both
« Previous Day
Next Day »
Daily Weekly Monthly Yearly Custom
  High: Low: Average:
Temperature: TemperatureF °F 48.0 °F 53.5 °F
Dew Point: DewpointF °F 29.7 °F 37 °F
Humidity: Humidity % 43 % 54 %
Wind Speed: WindSpeedMPH mph 0.0 mph 3.2 mph
Wind Gust: WindSpeedGustMPH mph - -
Wind:- - SSE
Pressure: PressureIn in 30.19 in -
Precipitation: 0.00 in    
Historical Graphs
 
 
Tabular Data for February 2, 2018
Time Temperature Dew Point Pressure Wind Wind Speed Wind Gust Humidity Rainfall Rate (Hourly)
TemperatureF °F DewpointF °F PressureIn in Calm     Humidity % HourlyPrecipIn in
00:03 60.4 °F 50.2 °F 30.19 in NNW 3.0 mph 5.0 mph 69 % 0.00 in
00:08 60.6 °F 50.7 °F 30.19 in North 5.0 mph 6.0 mph 70 % 0.00 in
00:13 60.8 °F 50.9 °F 30.19 in NNW 5.0 mph 7.0 mph 70 % 0.00 in
00:18 61.0 °F 51.4 °F 30.19 in NNW 5.0 mph 8.0 mph 71 % 0.00 in
00:23 61.2 °F 51.6 °F 30.19 in North 1.0 mph 8.0 mph 71 % 0.00 in
00:28 61.2 °F 52.0 °F 30.19 in NNE 2.0 mph 9.0 mph 72 % 0.00 in
00:33 61.2 °F 52.5 °F 30.19 in NNE 9.0 mph 10.0 mph 73 % 0.00 in
00:38 61.2 °F 52.5 °F 30.20 in NNE 8.0 mph 10.0 mph 73 % 0.00 in
00:43 61.0 °F 52.7 °F 30.20 in North 7.0 mph 11.0 mph 74 % 0.00 in
00:48 61.0 °F 53.1 °F 30.20 in East 1.0 mph 12.0 mph 75 % 0.00 in
00:53 60.8 °F 52.9 °F 30.20 in North 4.0 mph 12.0 mph 75 % 0.00 in
00:58 60.6 °F 53.1 °F 30.21 in West 2.0 mph 12.0 mph 76 % 0.00 in
01:03 60.4 °F 52.9 °F 30.21 in NW 7.0 mph 12.0 mph 76 % 0.00 in
01:08 60.3 °F 53.1 °F 30.22 in NW 2.0 mph 13.0 mph 77 % 0.00 in
01:13 60.3 °F 53.1 °F 30.22 in North 4.0 mph 13.0 mph 77 % 0.00 in
01:18 60.1 °F 52.9 °F 30.22 in NNW 1.0 mph 13.0 mph 77 % 0.00 in
01:23 60.1 °F 53.2 °F 30.23 in NW 11.0 mph 11.0 mph 78 % 0.00 in
01:28 59.7 °F 52.9 °F 30.23 in ENE 6.0 mph 13.0 mph 78 % 0.00 in
01:33 59.7 °F 52.9 °F 30.23 in NNW 4.0 mph 14.0 mph 78 % 0.00 in
01:38 59.5 °F 53.1 °F 30.23 in NNE 5.0 mph 16.0 mph 79 % 0.00 in
01:43 59.5 °F 53.1 °F 30.24 in West 3.0 mph 16.0 mph 79 % 0.00 in
01:48 59.4 °F 52.9 °F 30.24 in East 6.0 mph 16.0 mph 79 % 0.00 in
01:53 59.2 °F 52.7 °F 30.24 in NNW 6.0 mph 14.0 mph 79 % 0.00 in
01:58 59.2 °F 52.7 °F 30.24 in NNW 8.0 mph 12.0 mph 79 % 0.00 in
02:03 59.0 °F 52.5 °F 30.24 in NNW 3.0 mph 14.0 mph 79 % 0.00 in
02:08 58.8 °F 52.3 °F 30.24 in NNE 5.0 mph 14.0 mph 79 % 0.00 in
02:13 58.6 °F 51.8 °F 30.24 in North 4.0 mph 17.0 mph 78 % 0.00 in
02:18 58.3 °F 51.1 °F 30.25 in SW 4.0 mph 17.0 mph 77 % 0.00 in
02:23 57.9 °F 50.4 °F 30.25 in NNW 4.0 mph 17.0 mph 76 % 0.00 in
02:28 57.6 °F 50.0 °F 30.25 in NNW 11.0 mph 17.0 mph 76 % 0.00 in
02:33 57.4 °F 49.5 °F 30.25 in NNE 4.0 mph 17.0 mph 75 % 0.00 in
02:38 57.0 °F 49.1 °F 30.25 in North 2.0 mph 17.0 mph 75 % 0.00 in
02:43 56.8 °F 48.6 °F 30.25 in NNW 7.0 mph 15.0 mph 74 % 0.00 in
02:48 56.5 °F 48.0 °F 30.25 in North 2.0 mph 14.0 mph 73 % 0.00 in
02:53 56.3 °F 47.5 °F 30.26 in NNW 3.0 mph 14.0 mph 72 % 0.00 in
02:58 55.9 °F 46.2 °F 30.26 in WNW 8.0 mph 14.0 mph 70 % 0.00 in
03:03 55.8 °F 46.0 °F 30.27 in NNW 9.0 mph 15.0 mph 70 % 0.00 in
03:08 55.6 °F 45.5 °F 30.27 in NW 7.0 mph 15.0 mph 69 % 0.00 in
03:14 55.6 °F 45.1 °F 30.27 in NNE 3.0 mph 15.0 mph 68 % 0.00 in
03:19 55.2 °F 44.8 °F 30.27 in NNE 5.0 mph 15.0 mph 68 % 0.00 in
03:24 55.0 °F 43.9 °F 30.27 in North 7.0 mph 14.0 mph 66 % 0.00 in
03:29 54.9 °F 43.3 °F 30.27 in North 7.0 mph 14.0 mph 65 % 0.00 in
03:34 54.9 °F 43.3 °F 30.27 in East 6.0 mph 14.0 mph 65 % 0.00 in
03:39 54.7 °F 42.8 °F 30.27 in NNE 7.0 mph 16.0 mph 64 % 0.00 in
03:44 54.7 °F 42.3 °F 30.27 in NW 5.0 mph 16.0 mph 63 % 0.00 in
03:49 54.5 °F 42.1 °F 30.27 in NE 2.0 mph 16.0 mph 63 % 0.00 in
03:54 54.3 °F 42.1 °F 30.28 in North 6.0 mph 16.0 mph 63 % 0.00 in
03:59 54.3 °F 41.5 °F 30.28 in North 3.0 mph 16.0 mph 62 % 0.00 in
04:04 54.3 °F 41.5 °F 30.28 in NNW 4.0 mph 16.0 mph 62 % 0.00 in
04:09 54.3 °F 41.5 °F 30.28 in NNW 5.0 mph 16.0 mph 62 % 0.00 in
04:14 54.1 °F 41.0 °F 30.28 in NNE 7.0 mph 16.0 mph 61 % 0.00 in
04:19 54.0 °F 39.9 °F 30.28 in North 8.0 mph 14.0 mph 59 % 0.00 in
04:24 53.8 °F 39.7 °F 30.29 in NNW 5.0 mph 15.0 mph 59 % 0.00 in
04:29 53.6 °F 39.2 °F 30.29 in South 3.0 mph 15.0 mph 58 % 0.00 in
04:34 53.4 °F 39.0 °F 30.29 in NNE 7.0 mph 15.0 mph 58 % 0.00 in
04:39 53.2 °F 38.5 °F 30.29 in North 2.0 mph 14.0 mph 57 % 0.00 in
04:44 53.2 °F 38.8 °F 30.30 in NE 7.0 mph 14.0 mph 58 % 0.00 in
04:49 53.1 °F 38.3 °F 30.30 in North 4.0 mph 14.0 mph 57 % 0.00 in
04:54 53.1 °F 38.3 °F 30.30 in NNE 2.0 mph 12.0 mph 57 % 0.00 in
04:59 52.9 °F 38.1 °F 30.30 in NNE 3.0 mph 12.0 mph 57 % 0.00 in
05:04 52.9 °F 38.1 °F 30.30 in West 4.0 mph 12.0 mph 57 % 0.00 in
05:09 52.7 °F 37.4 °F 30.30 in NE 4.0 mph 12.0 mph 56 % 0.00 in
05:14 52.7 °F 37.4 °F 30.31 in NE 1.0 mph 16.0 mph 56 % 0.00 in
05:19 52.7 °F 37.4 °F 30.31 in ENE 6.0 mph 16.0 mph 56 % 0.00 in
05:24 52.5 °F 37.2 °F 30.31 in NW 2.0 mph 16.0 mph 56 % 0.00 in
05:29 52.5 °F 37.2 °F 30.32 in NNE 8.0 mph 15.0 mph 56 % 0.00 in
05:34 52.5 °F 37.2 °F 30.32 in NNE 6.0 mph 15.0 mph 56 % 0.00 in
05:39 52.5 °F 36.9 °F 30.32 in North 8.0 mph 13.0 mph 55 % 0.00 in
05:44 52.5 °F 37.2 °F 30.32 in ENE 3.0 mph 13.0 mph 56 % 0.00 in
05:49 52.3 °F 37.0 °F 30.32 in NNE 8.0 mph 13.0 mph 56 % 0.00 in
05:54 52.3 °F 36.7 °F 30.33 in North 4.0 mph 13.0 mph 55 % 0.00 in
05:59 52.3 °F 36.7 °F 30.33 in North 9.0 mph 13.0 mph 55 % 0.00 in
06:04 52.2 °F 36.5 °F 30.33 in ENE 4.0 mph 13.0 mph 55 % 0.00 in
06:09 52.2 °F 36.5 °F 30.33 in Calm   13.0 mph 55 % 0.00 in
06:14 52.2 °F 36.5 °F 30.34 in NE 4.0 mph 12.0 mph 55 % 0.00 in
06:19 52.2 °F 36.5 °F 30.34 in NNE 3.0 mph 13.0 mph 55 % 0.00 in
06:24 52.2 °F 36.5 °F 30.34 in NNE 4.0 mph 13.0 mph 55 % 0.00 in
06:29 52.2 °F 36.5 °F 30.35 in East 2.0 mph 13.0 mph 55 % 0.00 in
06:34 52.0 °F 35.8 °F 30.35 in North 4.0 mph 11.0 mph 54 % 0.00 in
06:39 52.0 °F 36.3 °F 30.35 in NW 2.0 mph 11.0 mph 55 % 0.00 in
06:44 52.0 °F 36.3 °F 30.35 in NNW 4.0 mph 11.0 mph 55 % 0.00 in
06:49 52.0 °F 35.8 °F 30.35 in North 8.0 mph 11.0 mph 54 % 0.00 in
06:54 51.8 °F 36.1 °F 30.35 in NW 1.0 mph 12.0 mph 55 % 0.00 in
06:59 51.8 °F 36.1 °F 30.36 in ENE 6.0 mph 12.0 mph 55 % 0.00 in
07:04 51.8 °F 36.1 °F 30.36 in NW 5.0 mph 12.0 mph 55 % 0.00 in
07:09 51.6 °F 36.0 °F 30.36 in ENE 2.0 mph 11.0 mph 55 % 0.00 in
07:14 51.6 °F 36.0 °F 30.36 in North 5.0 mph 12.0 mph 55 % 0.00 in
07:19 51.6 °F 36.0 °F 30.37 in NNE 6.0 mph 12.0 mph 55 % 0.00 in
07:24 51.6 °F 36.0 °F 30.37 in West 1.0 mph 12.0 mph 55 % 0.00 in
07:29 51.6 °F 35.6 °F 30.37 in NNW 2.0 mph 12.0 mph 54 % 0.00 in
07:34 51.6 °F 35.6 °F 30.38 in WNW 4.0 mph 12.0 mph 54 % 0.00 in
07:39 51.6 °F 35.6 °F 30.38 in NW 1.0 mph 12.0 mph 54 % 0.00 in
07:40 51.4 °F 35.4 °F 30.38 in NNW 5.0 mph 10.0 mph 54 % 0.00 in
07:45 51.6 °F 36.0 °F 30.38 in North 3.0 mph 10.0 mph 55 % 0.00 in
07:50 51.6 °F 35.6 °F 30.38 in ESE 3.0 mph 11.0 mph 54 % 0.00 in
07:55 51.6 °F 35.6 °F 30.38 in NE 3.0 mph 11.0 mph 54 % 0.00 in
08:00 51.4 °F 35.4 °F 30.38 in NNE 6.0 mph 13.0 mph 54 % 0.00 in
08:05 51.4 °F 35.4 °F 30.38 in WNW 1.0 mph 13.0 mph 54 % 0.00 in
08:10 51.4 °F 35.4 °F 30.39 in WNW 3.0 mph 13.0 mph 54 % 0.00 in
08:15 51.4 °F 35.4 °F 30.39 in NE 7.0 mph 12.0 mph 54 % 0.00 in
08:20 51.4 °F 35.8 °F 30.39 in ENE 3.0 mph 12.0 mph 55 % 0.00 in
08:25 51.3 °F 35.2 °F 30.40 in NNE 10.0 mph 11.0 mph 54 % 0.00 in
08:30 51.4 °F 35.4 °F 30.40 in North 7.0 mph 11.0 mph 54 % 0.00 in
08:35 51.4 °F 35.4 °F 30.40 in NW 2.0 mph 12.0 mph 54 % 0.00 in
08:40 51.6 °F 36.0 °F 30.40 in NNE 4.0 mph 12.0 mph 55 % 0.00 in
08:45 51.6 °F 35.6 °F 30.40 in North 3.0 mph 12.0 mph 54 % 0.00 in
08:50 51.6 °F 35.6 °F 30.41 in ENE 1.0 mph 11.0 mph 54 % 0.00 in
08:55 51.6 °F 35.6 °F 30.41 in NNW 3.0 mph 11.0 mph 54 % 0.00 in
09:00 51.6 °F 35.6 °F 30.41 in NNW 6.0 mph 15.0 mph 54 % 0.00 in
09:05 51.6 °F 35.6 °F 30.41 in NNW 1.0 mph 15.0 mph 54 % 0.00 in
09:10 51.6 °F 35.6 °F 30.41 in NE 7.0 mph 15.0 mph 54 % 0.00 in
09:15 51.6 °F 35.6 °F 30.42 in NW 1.0 mph 13.0 mph 54 % 0.00 in
09:20 51.6 °F 35.6 °F 30.42 in SE 3.0 mph 12.0 mph 54 % 0.00 in
09:25 52.0 °F 36.3 °F 30.42 in Calm   12.0 mph 55 % 0.00 in
09:30 52.2 °F 36.0 °F 30.42 in North 4.0 mph 12.0 mph 54 % 0.00 in
09:35 52.2 °F 35.6 °F 30.43 in NNE 2.0 mph 10.0 mph 53 % 0.00 in
09:40 52.0 °F 35.8 °F 30.43 in NNE 3.0 mph 10.0 mph 54 % 0.00 in
09:45 51.8 °F 35.6 °F 30.43 in NNW 3.0 mph 10.0 mph 54 % 0.00 in
09:50 51.8 °F 36.1 °F 30.43 in North 2.0 mph 10.0 mph 55 % 0.00 in
09:55 51.8 °F 36.1 °F 30.43 in NE 2.0 mph 10.0 mph 55 % 0.00 in
10:00 52.0 °F 36.3 °F 30.43 in NW 3.0 mph 8.0 mph 55 % 0.00 in
10:05 51.8 °F 36.1 °F 30.43 in ENE 3.0 mph 8.0 mph 55 % 0.00 in
10:06 51.8 °F 36.1 °F 30.43 in NNW 5.0 mph 8.0 mph 55 % 0.00 in
10:11 51.8 °F 35.6 °F 30.44 in NE 7.0 mph 9.0 mph 54 % 0.00 in
10:16 51.8 °F 36.1 °F 30.44 in ENE 3.0 mph 9.0 mph 55 % 0.00 in
10:21 52.0 °F 35.8 °F 30.44 in North 7.0 mph 10.0 mph 54 % 0.00 in
10:26 52.0 °F 36.3 °F 30.44 in NNE 2.0 mph 10.0 mph 55 % 0.00 in
10:31 52.3 °F 36.1 °F 30.44 in NNE 6.0 mph 10.0 mph 54 % 0.00 in
10:36 52.5 °F 36.9 °F 30.44 in NE 3.0 mph 7.0 mph 55 % 0.00 in
10:41 52.9 °F 36.7 °F 30.44 in NNE 4.0 mph 7.0 mph 54 % 0.00 in
10:46 53.2 °F 36.5 °F 30.44 in North 3.0 mph 9.0 mph 53 % 0.00 in
10:51 53.2 °F 35.6 °F 30.44 in ENE 8.0 mph 9.0 mph 51 % 0.00 in
10:56 53.4 °F 36.3 °F 30.44 in North 2.0 mph 11.0 mph 52 % 0.00 in
11:01 53.8 °F 36.5 °F 30.44 in NNW 4.0 mph 11.0 mph 52 % 0.00 in
11:06 54.3 °F 36.5 °F 30.44 in WNW 1.0 mph 11.0 mph 51 % 0.00 in
11:11 54.3 °F 36.5 °F 30.44 in Calm   9.0 mph 51 % 0.00 in
11:14 54.3 °F 36.5 °F 30.43 in North 1.0 mph 9.0 mph 51 % 0.00 in
11:19 54.7 °F 36.0 °F 30.43 in East 3.0 mph 8.0 mph 49 % 0.00 in
11:24 54.7 °F 36.0 °F 30.43 in East 3.0 mph 8.0 mph 49 % 0.00 in
11:29 55.0 °F 36.7 °F 30.43 in NE 3.0 mph 8.0 mph 50 % 0.00 in
11:34 55.8 °F 37.4 °F 30.43 in North 2.0 mph 8.0 mph 50 % 0.00 in
11:39 55.9 °F 36.5 °F 30.43 in North 4.0 mph 8.0 mph 48 % 0.00 in
11:44 55.6 °F 36.7 °F 30.43 in East 4.0 mph 8.0 mph 49 % 0.00 in
11:49 55.4 °F 37.0 °F 30.42 in NE 6.0 mph 8.0 mph 50 % 0.00 in
11:54 55.2 °F 37.4 °F 30.42 in North 3.0 mph 8.0 mph 51 % 0.00 in
11:59 55.2 °F 36.9 °F 30.41 in NE 3.0 mph 7.0 mph 50 % 0.00 in
12:04 55.4 °F 37.6 °F 30.41 in North 2.0 mph 7.0 mph 51 % 0.00 in
12:09 55.8 °F 37.9 °F 30.41 in Calm   8.0 mph 51 % 0.00 in
12:14 56.5 °F 38.1 °F 30.41 in North 7.0 mph 8.0 mph 50 % 0.00 in
12:19 56.3 °F 37.4 °F 30.41 in WSW 3.0 mph 10.0 mph 49 % 0.00 in
12:24 56.5 °F 37.6 °F 30.40 in NNE 2.0 mph 10.0 mph 49 % 0.00 in
12:29 56.5 °F 37.6 °F 30.40 in NE 6.0 mph 11.0 mph 49 % 0.00 in
12:34 56.7 °F 37.2 °F 30.40 in NNE 6.0 mph 12.0 mph 48 % 0.00 in
12:39 56.5 °F 37.0 °F 30.40 in North 7.0 mph 12.0 mph 48 % 0.00 in
12:44 56.5 °F 37.6 °F 30.40 in ENE 5.0 mph 12.0 mph 49 % 0.00 in
12:49 56.5 °F 37.0 °F 30.40 in NW 2.0 mph 9.0 mph 48 % 0.00 in
12:54 56.1 °F 37.2 °F 30.39 in NW 2.0 mph 9.0 mph 49 % 0.00 in
12:59 55.9 °F 37.6 °F 30.39 in NNE 3.0 mph 9.0 mph 50 % 0.00 in
13:04 55.9 °F 37.6 °F 30.38 in Calm   9.0 mph 50 % 0.00 in
13:09 56.1 °F 37.8 °F 30.38 in North 3.0 mph 9.0 mph 50 % 0.00 in
13:14 57.0 °F 38.1 °F 30.38 in NNE 9.0 mph 9.0 mph 49 % 0.00 in
13:19 57.6 °F 37.4 °F 30.38 in North 4.0 mph 10.0 mph 47 % 0.00 in
13:24 57.7 °F 37.0 °F 30.38 in NE 4.0 mph 10.0 mph 46 % 0.00 in
13:29 57.2 °F 37.2 °F 30.37 in NNE 4.0 mph 10.0 mph 47 % 0.00 in
13:34 57.2 °F 37.2 °F 30.37 in NW 3.0 mph 10.0 mph 47 % 0.00 in
13:39 57.6 °F 37.4 °F 30.37 in ENE 4.0 mph 12.0 mph 47 % 0.00 in
13:44 57.9 °F 37.2 °F 30.36 in NNE 5.0 mph 12.0 mph 46 % 0.00 in
13:49 58.1 °F 37.4 °F 30.36 in East 3.0 mph 12.0 mph 46 % 0.00 in
13:54 58.5 °F 37.8 °F 30.36 in North 7.0 mph 10.0 mph 46 % 0.00 in
13:59 57.9 °F 37.2 °F 30.36 in North 6.0 mph 10.0 mph 46 % 0.00 in
14:04 57.6 °F 36.9 °F 30.36 in NE 4.0 mph 13.0 mph 46 % 0.00 in
14:09 57.4 °F 37.9 °F 30.36 in ENE 5.0 mph 13.0 mph 48 % 0.00 in
14:14 57.6 °F 37.4 °F 30.36 in WNW 4.0 mph 13.0 mph 47 % 0.00 in
14:19 57.6 °F 36.9 °F 30.36 in NNW 3.0 mph 9.0 mph 46 % 0.00 in
14:24 57.4 °F 37.4 °F 30.36 in NNE 5.0 mph 9.0 mph 47 % 0.00 in
14:29 56.8 °F 36.9 °F 30.36 in NNW 4.0 mph 9.0 mph 47 % 0.00 in
14:34 56.7 °F 37.2 °F 30.36 in NW 4.0 mph 11.0 mph 48 % 0.00 in
14:39 56.5 °F 37.6 °F 30.36 in NNE 5.0 mph 11.0 mph 49 % 0.00 in
14:44 56.5 °F 37.0 °F 30.36 in ESE 2.0 mph 11.0 mph 48 % 0.00 in
14:49 56.1 °F 36.7 °F 30.36 in NNW 2.0 mph 10.0 mph 48 % 0.00 in
14:54 55.9 °F 36.5 °F 30.36 in NNW 6.0 mph 9.0 mph 48 % 0.00 in
14:59 55.8 °F 36.3 °F 30.36 in North 7.0 mph 10.0 mph 48 % 0.00 in
15:04 55.6 °F 36.7 °F 30.36 in North 2.0 mph 10.0 mph 49 % 0.00 in
15:09 55.4 °F 36.0 °F 30.36 in NNW 3.0 mph 10.0 mph 48 % 0.00 in
15:14 55.4 °F 36.0 °F 30.36 in North 1.0 mph 9.0 mph 48 % 0.00 in
15:19 55.4 °F 36.0 °F 30.36 in NNE 7.0 mph 10.0 mph 48 % 0.00 in
15:24 55.2 °F 36.0 °F 30.35 in North 2.0 mph 10.0 mph 48 % 0.00 in
15:29 55.2 °F 36.0 °F 30.35 in East 4.0 mph 10.0 mph 48 % 0.00 in
15:34 55.4 °F 35.4 °F 30.35 in North 3.0 mph 9.0 mph 47 % 0.00 in
15:39 55.6 °F 35.1 °F 30.35 in NNW 2.0 mph 9.0 mph 46 % 0.00 in
15:44 55.4 °F 34.9 °F 30.35 in North 2.0 mph 8.0 mph 46 % 0.00 in
15:49 55.4 °F 34.9 °F 30.35 in Calm   8.0 mph 46 % 0.00 in
15:54 55.2 °F 34.9 °F 30.35 in North 3.0 mph 8.0 mph 46 % 0.00 in
15:59 55.2 °F 34.2 °F 30.35 in ENE 4.0 mph 8.0 mph 45 % 0.00 in
16:04 55.2 °F 34.9 °F 30.35 in ENE 5.0 mph 8.0 mph 46 % 0.00 in
16:09 55.0 °F 35.2 °F 30.35 in Calm   8.0 mph 47 % 0.00 in
16:14 54.9 °F 35.1 °F 30.35 in NNW 1.0 mph 8.0 mph 47 % 0.00 in
16:19 54.7 °F 34.3 °F 30.35 in NNW 1.0 mph 8.0 mph 46 % 0.00 in
16:24 54.7 °F 33.8 °F 30.35 in NNE 3.0 mph 8.0 mph 45 % 0.00 in
16:29 54.7 °F 34.3 °F 30.35 in Calm   8.0 mph 46 % 0.00 in
16:34 54.5 °F 33.6 °F 30.35 in North 1.0 mph 9.0 mph 45 % 0.00 in
16:39 54.7 °F 33.8 °F 30.35 in North 2.0 mph 9.0 mph 45 % 0.00 in
16:44 54.5 °F 33.6 °F 30.35 in NE 1.0 mph 9.0 mph 45 % 0.00 in
16:49 54.5 °F 33.6 °F 30.35 in North 1.0 mph 7.0 mph 45 % 0.00 in
16:55 54.5 °F 33.6 °F 30.35 in North 3.0 mph 7.0 mph 45 % 0.00 in
17:00 54.5 °F 33.6 °F 30.35 in NNE 1.0 mph 9.0 mph 45 % 0.00 in
17:04 54.5 °F 33.1 °F 30.35 in Calm   9.0 mph 44 % 0.00 in
17:10 54.5 °F 32.5 °F 30.35 in NNE 3.0 mph 9.0 mph 43 % 0.00 in
17:15 54.3 °F 32.9 °F 30.35 in NE 1.0 mph 8.0 mph 44 % 0.00 in
17:20 54.3 °F 32.9 °F 30.35 in Calm   8.0 mph 44 % 0.00 in
17:25 54.3 °F 33.4 °F 30.35 in East 2.0 mph 8.0 mph 45 % 0.00 in
17:30 54.1 °F 32.7 °F 30.34 in Calm   5.0 mph 44 % 0.00 in
17:35 54.0 °F 32.5 °F 30.35 in East 1.0 mph 6.0 mph 44 % 0.00 in
17:40 53.8 °F 32.4 °F 30.35 in NE 3.0 mph 6.0 mph 44 % 0.00 in
17:45 53.6 °F 32.2 °F 30.34 in ENE 2.0 mph 8.0 mph 44 % 0.00 in
17:50 53.4 °F 31.5 °F 30.34 in Calm   8.0 mph 43 % 0.00 in
17:55 53.2 °F 31.3 °F 30.34 in Calm   8.0 mph 43 % 0.00 in
18:00 53.1 °F 31.1 °F 30.34 in NNE 3.0 mph 7.0 mph 43 % 0.00 in
18:05 52.9 °F 31.6 °F 30.34 in ENE 1.0 mph 7.0 mph 44 % 0.00 in
18:10 52.5 °F 30.7 °F 30.34 in North 2.0 mph 8.0 mph 43 % 0.00 in
18:15 52.5 °F 30.7 °F 30.35 in North 2.0 mph 8.0 mph 43 % 0.00 in
18:20 52.3 °F 30.6 °F 30.35 in Calm   8.0 mph 43 % 0.00 in
18:25 52.3 °F 30.6 °F 30.35 in NNE 1.0 mph 6.0 mph 43 % 0.00 in
18:30 52.2 °F 30.9 °F 30.35 in Calm   6.0 mph 44 % 0.00 in
18:35 52.2 °F 30.4 °F 30.35 in ENE 3.0 mph 7.0 mph 43 % 0.00 in
18:40 52.0 °F 30.2 °F 30.35 in NNE 3.0 mph 7.0 mph 43 % 0.00 in
18:45 52.0 °F 30.2 °F 30.35 in NNE 1.0 mph 7.0 mph 43 % 0.00 in
18:50 51.8 °F 30.6 °F 30.35 in NE 3.0 mph 6.0 mph 44 % 0.00 in
18:55 51.6 °F 29.8 °F 30.35 in NE 3.0 mph 7.0 mph 43 % 0.00 in
19:00 51.6 °F 29.8 °F 30.35 in NE 1.0 mph 10.0 mph 43 % 0.00 in
19:05 51.6 °F 29.8 °F 30.35 in ENE 3.0 mph 10.0 mph 43 % 0.00 in
19:10 51.4 °F 29.7 °F 30.35 in NNE 3.0 mph 10.0 mph 43 % 0.00 in
19:15 51.4 °F 30.2 °F 30.35 in North 1.0 mph 6.0 mph 44 % 0.00 in
19:20 51.4 °F 30.2 °F 30.35 in East 1.0 mph 6.0 mph 44 % 0.00 in
19:25 51.4 °F 30.7 °F 30.35 in North 2.0 mph 5.0 mph 45 % 0.00 in
19:30 51.4 °F 30.7 °F 30.35 in ENE 1.0 mph 6.0 mph 45 % 0.00 in
19:35 51.4 °F 30.2 °F 30.35 in NE 1.0 mph 6.0 mph 44 % 0.00 in
19:40 51.3 °F 30.6 °F 30.35 in NNE 2.0 mph 6.0 mph 45 % 0.00 in
19:45 51.3 °F 30.6 °F 30.35 in NE 1.0 mph 6.0 mph 45 % 0.00 in
19:50 51.3 °F 30.6 °F 30.35 in NW 2.0 mph 5.0 mph 45 % 0.00 in
19:55 51.3 °F 30.6 °F 30.35 in NNW 1.0 mph 5.0 mph 45 % 0.00 in
20:00 51.1 °F 30.6 °F 30.35 in East 2.0 mph 5.0 mph 45 % 0.00 in
20:05 51.1 °F 30.6 °F 30.35 in Calm   5.0 mph 45 % 0.00 in
20:10 51.1 °F 30.6 °F 30.35 in ENE 3.0 mph 5.0 mph 45 % 0.00 in
20:15 50.9 °F 30.4 °F 30.35 in Calm   4.0 mph 45 % 0.00 in
20:20 50.7 °F 30.2 °F 30.35 in East 2.0 mph 7.0 mph 45 % 0.00 in
20:25 50.7 °F 30.2 °F 30.35 in North 1.0 mph 7.0 mph 45 % 0.00 in
20:30 50.7 °F 30.2 °F 30.35 in ENE 1.0 mph 7.0 mph 45 % 0.00 in
20:35 50.5 °F 30.6 °F 30.35 in ENE 1.0 mph 7.0 mph 46 % 0.00 in
20:40 50.5 °F 30.0 °F 30.35 in NNW 2.0 mph 6.0 mph 45 % 0.00 in
20:45 50.5 °F 30.0 °F 30.35 in East 4.0 mph 7.0 mph 45 % 0.00 in
20:50 50.5 °F 30.6 °F 30.35 in NNW 1.0 mph 7.0 mph 46 % 0.00 in
20:55 50.4 °F 30.4 °F 30.35 in ENE 3.0 mph 7.0 mph 46 % 0.00 in
21:00 50.4 °F 30.4 °F 30.35 in Calm   6.0 mph 46 % 0.00 in
21:05 50.4 °F 30.9 °F 30.35 in Calm   6.0 mph 47 % 0.00 in
21:10 50.4 °F 30.9 °F 30.35 in NE 1.0 mph 6.0 mph 47 % 0.00 in
21:15 50.2 °F 30.7 °F 30.35 in ENE 2.0 mph 3.0 mph 47 % 0.00 in
21:20 50.2 °F 30.7 °F 30.35 in East 2.0 mph 4.0 mph 47 % 0.00 in
21:25 50.0 °F 31.1 °F 30.35 in Calm   5.0 mph 48 % 0.00 in
21:30 49.8 °F 30.9 °F 30.35 in ENE 1.0 mph 5.0 mph 48 % 0.00 in
21:35 49.8 °F 31.5 °F 30.35 in NE 2.0 mph 5.0 mph 49 % 0.00 in
21:40 49.8 °F 31.5 °F 30.35 in ENE 2.0 mph 3.0 mph 49 % 0.00 in
21:45 49.6 °F 31.3 °F 30.35 in Calm   5.0 mph 49 % 0.00 in
21:50 49.6 °F 31.3 °F 30.35 in ENE 2.0 mph 5.0 mph 49 % 0.00 in
21:55 49.5 °F 31.1 °F 30.35 in Calm   7.0 mph 49 % 0.00 in
22:00 49.5 °F 31.1 °F 30.34 in NE 1.0 mph 7.0 mph 49 % 0.00 in
22:05 49.5 °F 31.6 °F 30.34 in Calm   7.0 mph 50 % 0.00 in
22:10 49.3 °F 31.5 °F 30.34 in Calm   5.0 mph 50 % 0.00 in
22:15 49.1 °F 31.3 °F 30.34 in NE 1.0 mph 3.0 mph 50 % 0.00 in
22:20 48.9 °F 31.6 °F 30.34 in Calm   3.0 mph 51 % 0.00 in
22:25 48.7 °F 31.5 °F 30.34 in North 1.0 mph 4.0 mph 51 % 0.00 in
22:30 48.7 °F 31.5 °F 30.34 in Calm   4.0 mph 51 % 0.00 in
22:35 48.6 °F 31.3 °F 30.34 in Calm   4.0 mph 51 % 0.00 in
22:40 48.6 °F 31.8 °F 30.35 in ENE 1.0 mph 3.0 mph 52 % 0.00 in
22:45 48.4 °F 31.6 °F 30.34 in NNW 1.0 mph 5.0 mph 52 % 0.00 in
22:50 48.4 °F 31.6 °F 30.34 in ENE 1.0 mph 5.0 mph 52 % 0.00 in
22:55 48.4 °F 31.6 °F 30.34 in NE 2.0 mph 6.0 mph 52 % 0.00 in
23:00 48.4 °F 31.1 °F 30.34 in NNE 2.0 mph 7.0 mph 51 % 0.00 in
23:05 48.4 °F 31.1 °F 30.34 in ESE 2.0 mph 7.0 mph 51 % 0.00 in
23:10 48.4 °F 31.1 °F 30.34 in ESE 2.0 mph 7.0 mph 51 % 0.00 in
23:15 48.4 °F 31.6 °F 30.34 in Calm   4.0 mph 52 % 0.00 in
23:20 48.2 °F 31.8 °F 30.33 in Calm   4.0 mph 53 % 0.00 in
23:25 48.0 °F 31.3 °F 30.34 in North 1.0 mph 3.0 mph 52 % 0.00 in
23:30 48.0 °F 31.3 °F 30.34 in ESE 1.0 mph 3.0 mph 52 % 0.00 in
23:35 48.0 °F 31.3 °F 30.33 in NNW 1.0 mph 3.0 mph 52 % 0.00 in
23:40 48.2 °F 31.5 °F 30.33 in Calm   5.0 mph 52 % 0.00 in
23:45 48.2 °F 31.8 °F 30.33 in Calm   5.0 mph 53 % 0.00 in
23:50 48.2 °F 31.8 °F 30.32 in ENE 4.0 mph 5.0 mph 53 % 0.00 in
23:55 48.0 °F 31.6 °F 30.32 in North 3.0 mph 4.0 mph 53 % 0.00 in
Spring, Texas: Villages of Bridgestone
Compliments of Weather Underground - 3 mb

Script developed by  Jim McMurry - jmcmurry@mwt.net Adapted for the template by  Wim van der Kuil - Leuven-Template.eu

You find our weather info also at:

UK Metoffice

WeatherCloud

Weather Underground

Mid-South Weather Network

AWEKAS

Citizen Weather Observer Program (CWOP)

HAMweather, WeatherForYou, PWS Weather

Equipment we use:

Weather-station
Davis Vantage Vue

Weather-program
Meteohub

Weather-server
Debian 7.9 x86 (Guest)

Provider
DreamHost

Davis Vantage Vue

Meteohub

Debian 7.9 x86 (Guest)

DreamHost